Regional Weather Roundup
Issued by NWS Newport/Morehead, NC

Current Version | Previous Version | Graphics & Text | Print | Product List | Glossary Off
Versions: 1 2 3 4 5 6 7 8 9 10 11 12 13 14 15 16 17 18 19 20 21 22 23 24 25 26 27 28 29 30 31 32 33 34 35 36 37 38 39 40 41 42 43 44 45 46 47 48 49 50
000 ASUS42 KMHX 301325 RWRMHX WEATHER ROUNDUP FOR EASTERN NORTH CAROLINA NATIONAL WEATHER SERVICE NEWPORT/MOREHEAD CITY NC 900 AM EDT SAT APR 30 2016 NOTE: "FAIR" INDICATES FEW OR NO CLOUDS BELOW 12,000 FEET WITH NO SIGNIFICANT WEATHER AND/OR OBSTRUCTIONS TO VISIBILITY NCZ015>017-031-032-045>047-102-103-301400- NORTH COAST CITY SKY/WX TMP DP RH WIND PRES REMARKS EDENTON CLOUDY 58 57 97 NE5 30.16R ELIZABETH CITY CLOUDY 56 52 86 NE13 30.15R KITTY HAWK CLOUDY 56 53 89 N6 30.14R MANTEO NOT AVBL $$ NCZ045>047-081-094-103-104-301400- CENTRAL COAST CITY SKY/WX TMP DP RH WIND PRES REMARKS FRISCO CLOUDY 60 54 80 NE12G18 30.13R SWANQUARTER NOT AVBL $$ NCZ095-097-098-100-101-301400- SOUTHERN COAST CITY SKY/WX TMP DP RH WIND PRES REMARKS BEAUFORT CLOUDY 61 56 83 NE8 30.13S CEDAR ISLAND NOT AVBL JACKSONVILLE CLOUDY 60 57 89 NE12 30.12R FOG PINEY ISLAND NOT AVBL WILMINGTON CLOUDY 65 60 84 E10 30.10R $$ NCZ011>013-027>030-043-044-078>080-089-090>093-098-301400- COASTAL PLAIN CITY SKY/WX TMP DP RH WIND PRES REMARKS AHOSKIE CLOUDY 55 53 91 NE6 30.16S CLINTON CLOUDY 62 60 94 E6 30.11F FOG ELIZABETHTOWN CLOUDY 63 60 90 E6 30.10S GOLDSBORO MOSUNNY 64 64 100 VRB6 30.11S GREENVILLE CLOUDY 59 55 88 E5 30.16R HAVELOCK CLOUDY 61 56 83 NE5 30.14S KENANSVILLE CLOUDY 59 57 94 CALM 30.13S FOG KINSTON PTSUNNY 61 57 88 E6 30.14R NEW BERN CLOUDY 59 54 83 NE3 30.15R RICHLANDS CLOUDY 61 58 90 E12 30.13R ROCKY MOUNT CLOUDY 58 54 86 NE7 30.14R WASHINGTON CLOUDY 58 54 85 E7 30.15R WHITEVILLE CLOUDY 65 62 88 NE9 30.09R $$ AMZ130-135-150-152-154-156-158-170-250-252-270-ANZ085-086-088-633-658-670-301400- MARINE OBSERVATIONS STATION/POSITION TIME TEMP WIND PRES WAVE SWELL AIR SEA DIR/SP/G HT/PER HT/PER (UTC) (F) (DEG/KT/KT) (MB) (FT/S) (FT/S) CHESAPEAKE LIGHT 1300 51 40/ 16/ 17 1021.7 64 E VA BEACH 1250 51 53 10/ 14/ 17 1020.2 7/10 5/10 DUCK 1300 53 67 20/ 15/ 17 1020.2 2 E DUCK 1211 58 N/A 5/11 2/11 OREGON INLET 1300 55 62 10/ 12/ 15 1020.4 13E OREGON INLT 1300 54 N/A 6/ 9 5/ 9 HATTERAS CG 1300 60 69 30/ 12/ 20 1019.8 DIAMOND BUOY 1250 60 74 30/ 16/ 19 1019.9 5/11 3/11 CAPE LOOKOUT 1300 61 50/ 13/ 14 1019.8 BEAUFORT LAB 1300 61 68 30/ 5/ 9 1019.3 30 SE NEW RVR IN 1225 67 N/A 3/ 4 27 SE WRIGHTSVLE 1308 66 69 70/ 17/ 23 1018.6 5 SE WRIGHTSVLE 1308 65 68 80/ 17/ 21 1019.6 225 S CAPE HAT 1250 71 71 60/ 8/ 10 1017.7 3/11 3/11 41 SE CHARLESTON 1250 74 72 90/ 6/ 6 1016.6 2/ 9 2/ 9 $$

USA.gov is the U.S. government's official web portal to all federal, state and local government web resources and services.